| time (UTC) | temp F | wind direction | speed MPH | gust MPH | rain 1hr in | rain 24hr in | rain mn in | humidity % | barometer mb |
| 20260508060004 | 47 | 301 | 3.0 | 7.0 | 0.00 | 0.13 | 0.00 | 88 | 1012.4 |
| 20260508055404 | 47 | 300 | 2.0 | 6.0 | 0.00 | 0.13 | 0.00 | 88 | 1012.5 |
| 20260508054503 | 47 | 292 | 1.0 | 4.0 | 0.00 | 0.13 | 0.00 | 88 | 1012.5 |
| 20260508053604 | 46 | 294 | 2.0 | 4.0 | 0.00 | 0.13 | 0.00 | 88 | 1012.2 |
| 20260508052704 | 46 | 276 | 2.0 | 4.0 | 0.00 | 0.13 | 0.00 | 88 | 1012.5 |
| 20260508051803 | 46 | 290 | 2.0 | 4.0 | 0.00 | 0.13 | 0.00 | 89 | 1012.2 |
| 20260508051118 | 46 | 279 | 1.0 | 4.0 | 0.00 | 0.13 | 0.00 | 89 | 1012.2 |
| 20260508050003 | 46 | 283 | 1.0 | 4.0 | 0.00 | 0.15 | 0.00 | 89 | 1012.1 |
| 20260508045403 | 46 | 289 | 1.0 | 3.0 | 0.00 | 0.16 | 0.00 | 89 | 1012.2 |
| 20260508044717 | 46 | 302 | 1.0 | 3.0 | 0.00 | 0.18 | 0.00 | 89 | 1012.2 |
| 20260508043818 | 47 | 286 | 1.0 | 3.0 | 0.00 | 0.19 | 0.00 | 88 | 1012.0 |
| 20260508042704 | 47 | 272 | 2.0 | 4.0 | 0.00 | 0.19 | 0.00 | 88 | 1011.9 |
| 20260508041804 | 47 | 275 | 2.0 | 4.0 | 0.00 | 0.19 | 0.00 | 88 | 1012.0 |
| 20260508040903 | 47 | 263 | 2.0 | 4.0 | 0.00 | 0.19 | 0.00 | 89 | 1012.0 |
| 20260508040003 | 47 | 261 | 2.0 | 4.0 | 0.00 | 0.19 | 0.00 | 89 | 1012.0 |
| 20260508035404 | 47 | 267 | 1.0 | 4.0 | 0.00 | 0.19 | 0.00 | 89 | 1011.8 |
| 20260508034718 | 47 | 263 | 1.0 | 4.0 | 0.00 | 0.19 | 0.00 | 89 | 1011.8 |
| 20260508033818 | 47 | 254 | 2.0 | 6.0 | 0.00 | 0.19 | 0.00 | 89 | 1011.5 |
| 20260508032703 | 47 | 238 | 2.0 | 4.0 | 0.00 | 0.21 | 0.00 | 89 | 1011.7 |
| 20260508031803 | 47 | 210 | 1.0 | 4.0 | 0.00 | 0.23 | 0.00 | 89 | 1011.9 |
| 20260508030903 | 47 | 207 | 2.0 | 4.0 | 0.00 | 0.23 | 0.00 | 90 | 1011.9 |
| 20260508030003 | 47 | 198 | 1.0 | 3.0 | 0.00 | 0.24 | 0.00 | 90 | 1011.7 |
| 20260508025403 | 47 | 201 | 1.0 | 3.0 | 0.00 | 0.25 | 0.00 | 90 | 1011.8 |
| 20260508024503 | 47 | 186 | 1.0 | 2.0 | 0.00 | 0.26 | 0.00 | 90 | 1011.7 |
| 20260508023603 | 47 | 193 | 1.0 | 2.0 | 0.00 | 0.26 | 0.00 | 90 | 1011.8 |
| 20260508022703 | 47 | 200 | 1.0 | 3.0 | 0.00 | 0.26 | 0.00 | 90 | 1011.7 |
| 20260508021804 | 47 | 196 | 1.0 | 3.0 | 0.00 | 0.26 | 0.00 | 90 | 1011.6 |
| 20260508020903 | 47 | 203 | 1.0 | 3.0 | 0.00 | 0.26 | 0.00 | 90 | 1011.6 |
| 20260508020003 | 47 | 203 | 1.0 | 3.0 | 0.00 | 0.26 | 0.00 | 90 | 1011.4 |
| 20260508015403 | 47 | 200 | 1.0 | 3.0 | 0.00 | 0.26 | 0.00 | 90 | 1011.3 |
| 20260508014504 | 47 | 204 | 1.0 | 4.0 | 0.00 | 0.26 | 0.00 | 90 | 1011.2 |
| 20260508013603 | 47 | 189 | 1.0 | 2.0 | 0.00 | 0.26 | 0.00 | 90 | 1011.4 |
| 20260508012703 | 47 | 194 | 1.0 | 4.0 | 0.00 | 0.26 | 0.00 | 90 | 1011.3 |
| 20260508011803 | 47 | 190 | 1.0 | 3.0 | 0.00 | 0.26 | 0.00 | 90 | 1011.3 |
| 20260508010903 | 47 | 194 | 1.0 | 3.0 | 0.00 | 0.26 | 0.00 | 90 | 1011.3 |
| 20260508010003 | 47 | 186 | 0.0 | 2.0 | 0.00 | 0.26 | 0.00 | 91 | 1011.4 |
| 20260508005404 | 47 | 186 | 1.0 | 2.0 | 0.00 | 0.26 | 0.00 | 91 | 1011.5 |
| 20260508004503 | 47 | 174 | 0.0 | 2.0 | 0.00 | 0.26 | 0.00 | 91 | 1011.5 |
| 20260508003603 | 47 | 187 | 1.0 | 2.0 | 0.00 | 0.26 | 0.00 | 91 | 1011.5 |
| 20260508002703 | 47 | 191 | 1.0 | 4.0 | 0.00 | 0.26 | 0.00 | 91 | 1011.3 |
| 20260508002017 | 47 | 139 | 0.0 | 1.0 | 0.00 | 0.26 | 0.00 | 91 | 1011.3 |
| 20260508000903 | 46 | 114 | 0.0 | 1.0 | 0.00 | 0.26 | 0.00 | 91 | 1011.3 |
| 20260508000003 | 47 | 112 | 0.0 | 1.0 | 0.00 | 0.26 | 0.00 | 91 | 1011.3 |
| 20260507235403 | 47 | 111 | 0.0 | 1.0 | 0.00 | 0.26 | 0.00 | 91 | 1011.3 |
| 20260507234503 | 47 | 107 | 0.0 | 1.0 | 0.00 | 0.26 | 0.00 | 92 | 1011.0 |
| 20260507233604 | 47 | 0 | 0.0 | 1.0 | 0.00 | 0.26 | 0.00 | 92 | 1011.2 |
| 20260507232703 | 47 | 0 | 0.0 | 1.0 | 0.00 | 0.26 | 0.00 | 92 | 1011.2 |
| 20260507231803 | 47 | 0 | 0.0 | 1.0 | 0.00 | 0.26 | 0.00 | 92 | 1011.2 |
| 20260507230903 | 47 | 106 | 0.0 | 1.0 | 0.00 | 0.26 | 0.00 | 92 | 1011.1 |
| 20260507230005 | 47 | 106 | 0.0 | 1.0 | 0.00 | 0.26 | 0.00 | 92 | 1011.1 |
| 20260507225403 | 47 | 0 | 0.0 | 0.0 | 0.00 | 0.26 | 0.26 | 92 | 1011.1 |
| 20260507224504 | 47 | 0 | 0.0 | 1.0 | 0.00 | 0.26 | 0.26 | 92 | 1010.9 |
| 20260507223603 | 47 | 0 | 0.0 | 1.0 | 0.00 | 0.26 | 0.26 | 92 | 1011.0 |
| 20260507222703 | 47 | 0 | 0.0 | 1.0 | 0.00 | 0.26 | 0.26 | 92 | 1010.9 |
| 20260507221803 | 47 | 0 | 0.0 | 1.0 | 0.00 | 0.26 | 0.26 | 92 | 1011.0 |
| 20260507220903 | 47 | 106 | 0.0 | 2.0 | 0.00 | 0.26 | 0.26 | 92 | 1010.8 |
| 20260507220217 | 47 | 106 | 0.0 | 2.0 | 0.00 | 0.26 | 0.26 | 92 | 1010.8 |
| 20260507215403 | 48 | 62 | 0.0 | 1.0 | 0.00 | 0.26 | 0.26 | 92 | 1010.9 |
| 20260507214503 | 48 | 62 | 0.0 | 1.0 | 0.00 | 0.26 | 0.26 | 92 | 1010.9 |
| 20260507213603 | 47 | 62 | 0.0 | 1.0 | 0.00 | 0.26 | 0.26 | 92 | 1010.8 |
| 20260507212703 | 48 | 62 | 0.0 | 1.0 | 0.00 | 0.26 | 0.26 | 92 | 1010.8 |
| 20260507211803 | 48 | 62 | 0.0 | 1.0 | 0.00 | 0.26 | 0.26 | 92 | 1010.8 |
| 20260507211117 | 48 | 0 | 0.0 | 1.0 | 0.00 | 0.26 | 0.26 | 92 | 1010.6 |
| 20260507210217 | 48 | 62 | 0.0 | 1.0 | 0.00 | 0.26 | 0.26 | 92 | 1010.5 |
| 20260507205403 | 48 | 62 | 0.0 | 1.0 | 0.00 | 0.26 | 0.26 | 92 | 1010.6 |
| 20260507204503 | 48 | 62 | 0.0 | 1.0 | 0.00 | 0.26 | 0.26 | 92 | 1010.3 |
| 20260507203603 | 48 | 28 | 0.0 | 1.0 | 0.00 | 0.26 | 0.26 | 92 | 1010.2 |
| 20260507202703 | 48 | 21 | 0.0 | 1.0 | 0.00 | 0.26 | 0.26 | 92 | 1010.0 |
| 20260507201803 | 49 | 18 | 0.0 | 1.0 | 0.00 | 0.26 | 0.26 | 91 | 1010.0 |
| 20260507200904 | 49 | 0 | 0.0 | 0.0 | 0.00 | 0.26 | 0.26 | 91 | 1010.0 |
| 20260507200004 | 49 | 0 | 0.0 | 0.0 | 0.00 | 0.26 | 0.26 | 91 | 1009.9 |
| 20260507195403 | 49 | 0 | 0.0 | 0.0 | 0.00 | 0.26 | 0.26 | 91 | 1010.0 |
| 20260507194503 | 49 | 0 | 0.0 | 0.0 | 0.00 | 0.26 | 0.26 | 91 | 1009.8 |
| 20260507193603 | 49 | 0 | 0.0 | 0.0 | 0.00 | 0.26 | 0.26 | 91 | 1009.9 |
| 20260507192703 | 49 | 0 | 0.0 | 0.0 | 0.00 | 0.26 | 0.26 | 91 | 1009.8 |
| 20260507191803 | 49 | 0 | 0.0 | 0.0 | 0.00 | 0.26 | 0.26 | 91 | 1009.8 |
| 20260507190903 | 49 | 0 | 0.0 | 0.0 | 0.01 | 0.26 | 0.26 | 91 | 1009.8 |
| 20260507190004 | 49 | 303 | 0.0 | 1.0 | 0.01 | 0.26 | 0.26 | 90 | 1009.8 |
| 20260507185403 | 49 | 280 | 0.0 | 1.0 | 0.01 | 0.26 | 0.26 | 90 | 1009.8 |
| 20260507184503 | 49 | 287 | 0.0 | 2.0 | 0.02 | 0.26 | 0.26 | 90 | 1009.6 |
| 20260507183603 | 49 | 293 | 1.0 | 2.0 | 0.03 | 0.26 | 0.26 | 90 | 1009.6 |
| 20260507182703 | 50 | 255 | 0.0 | 2.0 | 0.03 | 0.26 | 0.26 | 90 | 1009.6 |
| 20260507181804 | 50 | 213 | 0.0 | 2.0 | 0.03 | 0.26 | 0.26 | 90 | 1009.5 |
| 20260507181118 | 50 | 229 | 0.0 | 2.0 | 0.02 | 0.25 | 0.25 | 89 | 1009.5 |
| 20260507180003 | 50 | 109 | 0.0 | 2.0 | 0.02 | 0.25 | 0.25 | 89 | 1009.5 |
| 20260507175404 | 50 | 172 | 0.0 | 2.0 | 0.02 | 0.25 | 0.25 | 89 | 1009.7 |
| 20260507174503 | 50 | 191 | 0.0 | 2.0 | 0.02 | 0.24 | 0.24 | 88 | 1009.4 |
| 20260507173818 | 50 | 161 | 1.0 | 3.0 | 0.02 | 0.24 | 0.24 | 88 | 1009.3 |
| 20260507172919 | 51 | 163 | 1.0 | 3.0 | 0.01 | 0.23 | 0.23 | 87 | 1009.3 |
| 20260507171804 | 51 | 112 | 1.0 | 3.0 | 0.03 | 0.23 | 0.23 | 88 | 1009.4 |
| 20260507170903 | 51 | 98 | 1.0 | 4.0 | 0.03 | 0.23 | 0.23 | 88 | 1009.2 |
| 20260507170005 | 51 | 132 | 1.0 | 3.0 | 0.03 | 0.23 | 0.23 | 87 | 1009.2 |
| 20260507165403 | 51 | 89 | 1.0 | 6.0 | 0.03 | 0.23 | 0.23 | 87 | 1009.1 |
| 20260507164503 | 52 | 79 | 1.0 | 3.0 | 0.02 | 0.22 | 0.22 | 87 | 1009.0 |
| 20260507163603 | 52 | 80 | 2.0 | 6.0 | 0.02 | 0.22 | 0.22 | 87 | 1009.3 |
| 20260507162703 | 52 | 77 | 2.0 | 6.0 | 0.02 | 0.22 | 0.22 | 85 | 1009.1 |
| 20260507161803 | 53 | 80 | 1.0 | 4.0 | 0.00 | 0.20 | 0.20 | 84 | 1009.0 |
| 20260507160903 | 53 | 78 | 2.0 | 7.0 | 0.00 | 0.20 | 0.20 | 83 | 1009.1 |
| 20260507160005 | 53 | 109 | 2.0 | 6.0 | 0.00 | 0.20 | 0.20 | 83 | 1009.1 |
| 20260507155403 | 53 | 98 | 2.0 | 6.0 | 0.00 | 0.20 | 0.20 | 83 | 1009.0 |
| 20260507154504 | 53 | 89 | 2.0 | 6.0 | 0.00 | 0.20 | 0.20 | 84 | 1008.8 |
| 20260507153819 | 52 | 99 | 2.0 | 8.0 | 0.00 | 0.20 | 0.20 | 84 | 1008.9 |
| 20260507152703 | 52 | 119 | 3.0 | 8.0 | 0.00 | 0.20 | 0.20 | 82 | 1008.8 |
| 20260507151804 | 53 | 130 | 3.0 | 8.0 | 0.00 | 0.20 | 0.20 | 80 | 1008.8 |
| 20260507150903 | 54 | 132 | 3.0 | 11.0 | 0.00 | 0.20 | 0.20 | 75 | 1008.9 |
| 20260507150004 | 55 | 94 | 4.0 | 9.0 | 0.00 | 0.20 | 0.20 | 74 | 1009.0 |
| 20260507145403 | 56 | 103 | 3.0 | 8.0 | 0.00 | 0.20 | 0.20 | 72 | 1008.8 |
| 20260507144503 | 56 | 112 | 3.0 | 13.0 | 0.00 | 0.20 | 0.20 | 75 | 1009.0 |
| 20260507143604 | 55 | 111 | 3.0 | 9.0 | 0.00 | 0.20 | 0.20 | 77 | 1008.9 |
| 20260507142918 | 55 | 114 | 4.0 | 10.0 | 0.00 | 0.20 | 0.20 | 78 | 1009.0 |
| 20260507141803 | 54 | 126 | 4.0 | 11.0 | 0.00 | 0.20 | 0.20 | 81 | 1008.8 |
| 20260507140903 | 54 | 123 | 4.0 | 11.0 | 0.00 | 0.20 | 0.20 | 81 | 1008.7 |
| 20260507140003 | 54 | 121 | 3.0 | 9.0 | 0.00 | 0.20 | 0.20 | 80 | 1008.7 |
| 20260507135618 | 55 | 98 | 3.0 | 8.0 | 0.00 | 0.20 | 0.20 | 81 | 1008.6 |
| 20260507134503 | 54 | 86 | 3.0 | 10.0 | 0.00 | 0.20 | 0.20 | 83 | 1008.7 |
| 20260507133816 | 54 | 80 | 4.0 | 10.0 | 0.00 | 0.20 | 0.20 | 80 | 1008.7 |
| 20260507132704 | 57 | 95 | 4.0 | 13.0 | 0.01 | 0.20 | 0.20 | 74 | 1008.9 |
| 20260507132017 | 59 | 97 | 4.0 | 13.0 | 0.01 | 0.20 | 0.20 | 72 | 1008.8 |
| 20260507130904 | 56 | 127 | 4.0 | 10.0 | 0.01 | 0.20 | 0.20 | 78 | 1008.7 |
| 20260507130004 | 56 | 96 | 3.0 | 10.0 | 0.01 | 0.20 | 0.20 | 80 | 1008.7 |
| 20260507125403 | 55 | 90 | 4.0 | 9.0 | 0.01 | 0.20 | 0.20 | 81 | 1008.8 |
| 20260507124503 | 54 | 115 | 2.0 | 13.0 | 0.01 | 0.20 | 0.20 | 83 | 1008.9 |
| 20260507123818 | 54 | 71 | 3.0 | 13.0 | 0.01 | 0.20 | 0.20 | 79 | 1009.1 |
| 20260507122705 | 55 | 88 | 4.0 | 11.0 | 0.00 | 0.19 | 0.19 | 75 | 1008.8 |
| 20260507121803 | 56 | 99 | 4.0 | 10.0 | 0.00 | 0.19 | 0.19 | 75 | 1009.0 |
| 20260507121118 | 56 | 92 | 3.0 | 10.0 | 0.00 | 0.19 | 0.19 | 76 | 1008.9 |
| 20260507120003 | 56 | 68 | 3.0 | 10.0 | 0.00 | 0.19 | 0.19 | 78 | 1008.9 |
| 20260507115403 | 56 | 65 | 4.0 | 10.0 | 0.00 | 0.19 | 0.19 | 79 | 1008.8 |
| 20260507114503 | 56 | 93 | 3.0 | 9.0 | 0.00 | 0.19 | 0.19 | 81 | 1009.1 |
| 20260507113819 | 54 | 112 | 2.0 | 6.0 | 0.00 | 0.19 | 0.19 | 84 | 1009.1 |
| 20260507112917 | 52 | 93 | 4.0 | 13.0 | 0.00 | 0.19 | 0.19 | 83 | 1009.1 |
| 20260507111804 | 54 | 85 | 3.0 | 13.0 | 0.00 | 0.19 | 0.19 | 77 | 1009.1 |
| 20260507110908 | 56 | 67 | 3.0 | 8.0 | 0.00 | 0.19 | 0.19 | 75 | 1008.9 |
| 20260507110003 | 55 | 105 | 3.0 | 8.0 | 0.00 | 0.19 | 0.19 | 77 | 1008.8 |
| 20260507105618 | 55 | 92 | 3.0 | 9.0 | 0.00 | 0.19 | 0.19 | 78 | 1009.0 |
| 20260507104717 | 54 | 71 | 4.0 | 9.0 | 0.00 | 0.19 | 0.19 | 79 | 1009.1 |
| 20260507103603 | 55 | 97 | 4.0 | 9.0 | 0.00 | 0.19 | 0.19 | 78 | 1009.0 |
| 20260507102703 | 55 | 109 | 3.0 | 9.0 | 0.00 | 0.19 | 0.19 | 80 | 1009.1 |
| 20260507101804 | 54 | 124 | 3.0 | 7.0 | 0.00 | 0.19 | 0.19 | 82 | 1009.0 |
| 20260507100903 | 53 | 112 | 2.0 | 8.0 | 0.00 | 0.19 | 0.19 | 83 | 1009.0 |
| 20260507100003 | 52 | 88 | 3.0 | 8.0 | 0.00 | 0.19 | 0.19 | 84 | 1009.0 |
| 20260507095404 | 52 | 72 | 3.0 | 8.0 | 0.00 | 0.19 | 0.19 | 85 | 1009.1 |
| 20260507094503 | 52 | 80 | 3.0 | 9.0 | 0.00 | 0.19 | 0.19 | 87 | 1009.0 |
| 20260507093603 | 52 | 86 | 4.0 | 10.0 | 0.00 | 0.19 | 0.19 | 87 | 1009.1 |
| 20260507092705 | 52 | 91 | 3.0 | 10.0 | 0.00 | 0.19 | 0.19 | 86 | 1009.0 |
| 20260507091803 | 52 | 73 | 3.0 | 9.0 | 0.00 | 0.19 | 0.19 | 87 | 1008.8 |
| 20260507091117 | 53 | 75 | 3.0 | 9.0 | 0.00 | 0.19 | 0.19 | 84 | 1008.8 |
| 20260507090005 | 53 | 85 | 4.0 | 8.0 | 0.00 | 0.19 | 0.19 | 85 | 1008.6 |
| 20260507085403 | 53 | 80 | 3.0 | 7.0 | 0.00 | 0.19 | 0.19 | 86 | 1008.7 |
| 20260507084505 | 52 | 98 | 3.0 | 7.0 | 0.00 | 0.19 | 0.19 | 88 | 1008.7 |
| 20260507083606 | 52 | 105 | 3.0 | 7.0 | 0.00 | 0.19 | 0.19 | 89 | 1008.7 |
| 20260507082918 | 51 | 89 | 3.0 | 7.0 | 0.00 | 0.19 | 0.19 | 90 | 1008.9 |
| 20260507081808 | 51 | 82 | 3.0 | 8.0 | 0.00 | 0.19 | 0.19 | 91 | 1008.9 |
| 20260507080903 | 51 | 63 | 3.0 | 8.0 | 0.00 | 0.19 | 0.19 | 92 | 1008.8 |
| 20260507080004 | 51 | 85 | 2.0 | 6.0 | 0.00 | 0.19 | 0.19 | 92 | 1008.8 |
| 20260507075403 | 51 | 81 | 2.0 | 6.0 | 0.00 | 0.19 | 0.19 | 93 | 1008.7 |
| 20260507074503 | 50 | 84 | 2.0 | 6.0 | 0.00 | 0.19 | 0.19 | 93 | 1008.8 |
| 20260507073603 | 50 | 87 | 2.0 | 4.0 | 0.00 | 0.19 | 0.19 | 93 | 1009.1 |
| 20260507072703 | 49 | 81 | 2.0 | 4.0 | 0.04 | 0.19 | 0.19 | 93 | 1008.8 |
| 20260507071803 | 48 | 74 | 2.0 | 6.0 | 0.06 | 0.19 | 0.19 | 93 | 1008.8 |
| 20260507070903 | 48 | 91 | 2.0 | 6.0 | 0.06 | 0.19 | 0.19 | 93 | 1008.7 |
| 20260507070006 | 48 | 86 | 2.0 | 7.0 | 0.06 | 0.19 | 0.19 | 93 | 1008.8 |
| 20260507065404 | 48 | 71 | 2.0 | 6.0 | 0.06 | 0.19 | 0.19 | 93 | 1009.0 |
| 20260507064503 | 48 | 86 | 1.0 | 4.0 | 0.06 | 0.19 | 0.19 | 93 | 1008.8 |
| 20260507063819 | 47 | 92 | 1.0 | 4.0 | 0.06 | 0.19 | 0.19 | 93 | 1008.8 |
| 20260507062704 | 47 | 127 | 1.0 | 6.0 | 0.02 | 0.15 | 0.15 | 93 | 1008.7 |
| 20260507061804 | 47 | 89 | 2.0 | 7.0 | 0.00 | 0.13 | 0.13 | 93 | 1008.7 |
| 20260507060904 | 47 | 72 | 1.0 | 3.0 | 0.00 | 0.13 | 0.13 | 93 | 1008.7 |